Flag for Canada Weather past 2 weeks in Rouyn-Noranda, Quebec, Canada

Now
36 °F

Low clouds.


Feels Like: 28 °F
Forecast: 34 / 52 °F
Wind: 10 mph from North

Location: Rouyn Airport

Current Time: Apr 27, 2015 at 10:04:04 AM

Latest Report: Apr 27, 2015 at 9:00 AM


Visibility: 15 mi

Pressure: 29.99 "Hg

Humidity: 93%

Dew point: 34 °F

Location of Rouyn-NorandaLocation

Historic Weather in Rouyn-Noranda — Graph

°F

Rouyn-Noranda temperature yesterday

Maximum temperature yesterday: 39 °F (at 12:56 PM)
Minimum temperature yesterday: 32 °F (at 4:00 AM)
Average temperature yesterday: 35 °F

Past Weeks' High & Low Weather Summary

 TemperatureHumidityPressure
High59 °F (Apr 13, 1:00 PM)100% (Apr 20, 3:50 PM)30.48 "Hg (Apr 20, 3:50 PM)
Low19 °F (Apr 19, 6:00 AM)22% (Apr 19, 4:00 PM)29.30 "Hg (Apr 20, 11:00 PM)
Average37 °F71%29.89 "Hg
* Reported Apr 12 9:00 AM — Apr 27 9:00 AM, Rouyn-Noranda, Weather by CustomWeather, © 2015

Note: Actual official high and low records may vary slightly from our data, if they occured in-between our weather recording intervals... More about our weather records

Advertising

Rouyn-Noranda weather history for previous 24 hours

 ConditionsComfort  
Time TempWeatherWind HumidityBarometerVisibility
9:00 AM
Mon, Apr 27
36 °FLow clouds.10 mph93%29.99 "Hg15 mi
8:00 AM34 °FLow clouds.7 mph93%29.98 "Hg15 mi
7:00 AM34 °FLow clouds.8 mph93%29.97 "Hg15 mi
6:00 AM34 °FMostly cloudy.13 mph93%29.95 "Hg15 mi
5:00 AM34 °FPartly cloudy.12 mph93%29.94 "Hg15 mi
4:47 AM34 °FPartly cloudy.14 mph93%29.94 "Hg15 mi
4:00 AM34 °FPassing clouds.8 mph93%29.93 "Hg15 mi
3:00 AM34 °FPassing clouds.9 mph93%29.92 "Hg15 mi
2:00 AM34 °FPassing clouds.8 mph93%29.92 "Hg15 mi
1:00 AM36 °FPassing clouds.8 mph93%29.92 "Hg15 mi
12:48 AM36 °FPassing clouds.8 mph93%29.91 "Hg15 mi
12:00 AM36 °FPartly cloudy.8 mph100%29.92 "Hg15 mi
11:00 PM
Sun, Apr 26
36 °FLight rain. Mostly cloudy.8 mph100%29.92 "Hg15 mi
10:00 PM36 °FLight rain. Mostly cloudy.7 mph100%29.93 "Hg12 mi
9:00 PM36 °FLight rain. Low clouds.8 mph93%29.93 "Hg12 mi
8:00 PM36 °FLight rain. Mostly cloudy.8 mph93%29.92 "Hg10 mi
7:00 PM36 °FLight rain. Mostly cloudy.8 mph93%29.92 "Hg8 mi
6:00 PM36 °FLight rain. Mostly cloudy.10 mph93%29.93 "Hg5 mi
5:00 PM37 °FLight rain. Overcast.8 mph87%29.92 "Hg6 mi
4:00 PM37 °FOvercast.10 mph87%29.92 "Hg15 mi
3:50 PM37 °FOvercast.10 mph87%29.92 "Hg15 mi
3:00 PM36 °FLight rain. Overcast.12 mph93%29.91 "Hg15 mi
2:00 PM37 °FOvercast.15 mph87%29.92 "Hg15 mi
1:00 PM39 °FOvercast.8 mph81%29.90 "Hg15 mi
12:56 PM39 °FOvercast.10 mph81%29.91 "Hg15 mi
12:00 PM37 °FLow clouds.9 mph87%29.91 "Hg10 mi
11:00 AM36 °FLow clouds.8 mph87%29.91 "Hg10 mi
10:58 AM36 °FLow clouds.8 mph87%29.91 "Hg10 mi
10:00 AM34 °FLow clouds.10 mph93%29.92 "Hg8 mi
Weather by CustomWeather, © 2015

See weather overviewHow to use our weather pages